Flag for U.S.A. Weather past 2 weeks in Kailua-Kona, Hawaii, U.S.A.

Now
82 °F

Overcast.


Feels Like: 84 °F
Forecast: 65 / 78 °F
Wind: 6 mph from West

Location: Keahole Airport

Current Time: Mar 1, 2015 at 5:39:06 PM

Latest Report: Mar 1, 2015 at 4:53 PM


Visibility: 10 mi

Pressure: 29.90 "Hg

Humidity: 58%

Dew point: 66 °F

Location of Kailua-KonaLocation

Historic Weather in Kailua-Kona — Graph

°F

Kailua-Kona temperature yesterday

Maximum temperature yesterday: 81 °F (at 12:53 PM)
Minimum temperature yesterday: 73 °F (at 4:53 AM)
Average temperature yesterday: 77 °F

Past Weeks' High & Low Weather Summary

 TemperatureHumidityPressure
High85 °F (Feb 20, 10:53 AM)94% (Feb 14, 8:53 PM)30.04 "Hg (Feb 14, 8:53 PM)
Low65 °F (Feb 16, 6:53 AM)45% (Feb 20, 9:53 AM)29.71 "Hg (Feb 14, 3:53 PM)
Average77 °F68%29.94 "Hg
* Reported Feb 14 3:53 PM — Mar 1 3:53 PM, Kailua-Kona, Weather by CustomWeather, © 2015

Note: Actual official high and low records may vary slightly from our data, if they occured in-between our weather recording intervals... More about our weather records

Advertising

Kailua-Kona weather history for previous 24 hours

 ConditionsComfort  
Time TempWeatherWind HumidityBarometerVisibility
3:53 PM
Sun, Mar 1
84 °FPartly sunny.10 mph59%29.89 "Hg10 mi
2:53 PM84 °FSunny.9 mph57%29.90 "Hg10 mi
1:53 PM83 °FPassing clouds.9 mph59%29.91 "Hg10 mi
12:53 PM83 °FPassing clouds.10 mph63%29.92 "Hg10 mi
11:53 AM83 °FSunny.10 mph61%29.95 "Hg10 mi
10:53 AM81 °FPassing clouds.7 mph65%29.98 "Hg10 mi
9:53 AM80 °FSunny.8 mph69%29.98 "Hg10 mi
8:53 AM78 °FPassing clouds.No wind69%29.98 "Hg10 mi
7:53 AM75 °FSunny.5 mph74%29.96 "Hg10 mi
6:53 AM71 °FSunny.3 mph76%29.94 "Hg10 mi
5:53 AM72 °FClear.No wind78%29.91 "Hg10 mi
4:53 AM73 °FPassing clouds.5 mph79%29.90 "Hg10 mi
3:53 AM73 °FPassing clouds.3 mph79%29.91 "Hg10 mi
2:53 AM74 °FPassing clouds.No wind74%29.91 "Hg10 mi
1:53 AM74 °FClear.3 mph71%29.90 "Hg10 mi
12:53 AM75 °FPassing clouds.No wind64%29.92 "Hg10 mi
11:53 PM
Sat, Feb 28
75 °FClear.3 mph64%29.93 "Hg10 mi
10:53 PM75 °FClear.No wind71%29.93 "Hg10 mi
9:53 PM75 °FClear.5 mph69%29.92 "Hg10 mi
8:53 PM77 °FClear.No wind71%29.92 "Hg10 mi
7:53 PM78 °FPassing clouds.7 mph69%29.92 "Hg10 mi
7:34 PM77 °FClear.15 mph74%29.90 "Hg10 mi
7:21 PM77 °FClear.15 mph74%29.88 "Hg10 mi
6:53 PM77 °FClear.16 mph77%29.87 "Hg10 mi
5:53 PM78 °FBroken clouds.7 mph74%29.86 "Hg10 mi
Weather by CustomWeather, © 2015

See weather overviewHow to use our weather pages